Time,TemperatureF,DewpointF,PressureIn,WindDirection,WindDirectionDegrees,WindSpeedMPH,WindSpeedGustMPH,Humidity,HourlyPrecipIn,Conditions,Clouds,dailyrainin,SoftwareType,DateUTC
2013-05-09 00:03:00,51.6,42.6,30.26,North,0,4.7,5.6,71,0.00,,,0.00,WUHU21623XXSP,2013-05-09 07:03:00,
2013-05-09 00:08:00,51.6,42.6,30.26,North,0,4.0,4.7,71,0.00,,,0.00,WUHU21623XXSP,2013-05-09 07:08:00,
2013-05-09 00:13:00,51.6,42.6,30.26,NNW,337,3.4,4.7,71,0.00,,,0.00,WUHU21623XXSP,2013-05-09 07:13:00,
2013-05-09 00:18:00,51.6,42.6,30.26,North,0,2.5,4.0,71,0.00,,,0.00,WUHU21623XXSP,2013-05-09 07:18:00,
2013-05-09 00:23:00,51.6,42.9,30.26,North,0,10.3,10.3,72,0.00,,,0.00,WUHU21623XXSP,2013-05-09 07:23:00,
2013-05-09 00:28:00,51.6,42.9,30.26,North,0,6.7,10.3,72,0.00,,,0.00,WUHU21623XXSP,2013-05-09 07:28:00,
2013-05-09 00:33:00,51.6,42.9,30.26,North,0,6.7,8.9,72,0.00,,,0.00,WUHU21623XXSP,2013-05-09 07:33:00,
2013-05-09 00:38:00,51.6,42.9,30.26,West,270,1.3,6.7,72,0.00,,,0.00,WUHU21623XXSP,2013-05-09 07:38:00,
2013-05-09 00:43:00,51.6,42.9,30.26,NNE,22,5.4,6.3,72,0.00,,,0.00,WUHU21623XXSP,2013-05-09 07:43:00,
2013-05-09 00:49:00,51.6,42.9,30.26,NNE,22,6.7,6.7,72,0.00,,,0.00,WUHU21623XXSP,2013-05-09 07:49:00,
2013-05-09 00:54:00,51.6,42.9,30.25,North,0,2.0,6.7,72,0.00,,,0.00,WUHU21623XXSP,2013-05-09 07:54:00,
2013-05-09 00:59:00,51.6,42.9,30.26,North,0,0.0,6.7,72,0.00,,,0.00,WUHU21623XXSP,2013-05-09 07:59:00,
2013-05-09 01:04:00,51.6,42.9,30.26,North,0,9.4,9.4,72,0.00,,,0.00,WUHU21623XXSP,2013-05-09 08:04:00,
2013-05-09 01:09:00,51.6,42.9,30.25,NNE,22,6.0,9.4,72,0.00,,,0.00,WUHU21623XXSP,2013-05-09 08:09:00,
2013-05-09 01:14:00,51.6,42.9,30.26,North,0,5.4,9.2,72,0.00,,,0.00,WUHU21623XXSP,2013-05-09 08:14:00,
2013-05-09 01:19:00,51.6,42.9,30.25,NNE,22,6.5,9.2,72,0.00,,,0.00,WUHU21623XXSP,2013-05-09 08:19:00,
2013-05-09 01:24:00,51.6,42.9,30.25,North,0,2.0,9.2,72,0.00,,,0.00,WUHU21623XXSP,2013-05-09 08:24:00,
2013-05-09 01:29:00,51.6,42.9,30.26,NNE,22,7.4,9.2,72,0.00,,,0.00,WUHU21623XXSP,2013-05-09 08:29:00,
2013-05-09 01:34:00,51.6,42.9,30.25,NNE,22,6.3,8.5,72,0.00,,,0.00,WUHU21623XXSP,2013-05-09 08:34:00,
2013-05-09 01:39:00,51.6,42.9,30.25,North,0,4.5,9.4,72,0.00,,,0.00,WUHU21623XXSP,2013-05-09 08:39:00,
2013-05-09 01:44:00,51.6,42.9,30.25,North,0,6.7,9.4,72,0.00,,,0.00,WUHU21623XXSP,2013-05-09 08:44:00,
2013-05-09 01:49:00,51.6,42.9,30.25,NNE,22,8.9,10.3,72,0.00,,,0.00,WUHU21623XXSP,2013-05-09 08:49:00,
2013-05-09 01:54:00,51.6,42.9,30.25,North,0,9.2,10.3,72,0.00,,,0.00,WUHU21623XXSP,2013-05-09 08:54:00,
2013-05-09 01:59:00,51.6,42.9,30.24,NNE,22,9.8,9.8,72,0.00,,,0.00,WUHU21623XXSP,2013-05-09 08:59:00,
2013-05-09 02:04:00,51.6,42.9,30.24,North,0,4.0,9.8,72,0.00,,,0.00,WUHU21623XXSP,2013-05-09 09:04:00,
2013-05-09 02:09:00,51.6,42.9,30.23,North,0,4.5,9.8,72,0.00,,,0.00,WUHU21623XXSP,2013-05-09 09:09:00,
2013-05-09 02:14:00,51.6,42.9,30.24,NNE,22,2.0,6.3,72,0.00,,,0.00,WUHU21623XXSP,2013-05-09 09:14:00,
2013-05-09 02:19:00,51.6,42.9,30.24,NW,315,3.6,3.6,72,0.00,,,0.00,WUHU21623XXSP,2013-05-09 09:19:00,
2013-05-09 02:24:00,51.6,42.9,30.24,NNE,22,9.2,9.2,72,0.00,,,0.00,WUHU21623XXSP,2013-05-09 09:24:00,
2013-05-09 02:29:00,51.6,42.9,30.23,NNW,337,2.7,9.2,72,0.00,,,0.00,WUHU21623XXSP,2013-05-09 09:29:00,
2013-05-09 02:34:00,51.6,43.3,30.24,North,0,4.7,8.7,73,0.00,,,0.00,WUHU21623XXSP,2013-05-09 09:34:00,
2013-05-09 02:39:00,51.6,43.3,30.23,NNE,22,5.1,8.7,73,0.00,,,0.00,WUHU21623XXSP,2013-05-09 09:39:00,
2013-05-09 02:44:00,51.6,43.3,30.23,NNE,22,4.3,5.1,73,0.00,,,0.00,WUHU21623XXSP,2013-05-09 09:44:00,
2013-05-09 02:49:00,51.6,43.3,30.23,NNE,22,2.9,4.3,73,0.00,,,0.00,WUHU21623XXSP,2013-05-09 09:49:00,
2013-05-09 02:54:00,51.6,43.3,30.23,North,0,0.0,3.4,73,0.00,,,0.00,WUHU21623XXSP,2013-05-09 09:54:00,
2013-05-09 02:59:00,51.6,43.3,30.23,NNE,22,3.6,3.6,73,0.00,,,0.00,WUHU21623XXSP,2013-05-09 09:59:00,
2013-05-09 03:04:00,51.4,43.1,30.23,NNW,337,2.7,3.6,73,0.00,,,0.00,WUHU21623XXSP,2013-05-09 10:04:00,
2013-05-09 03:09:00,51.4,43.1,30.23,North,0,3.1,4.7,73,0.00,,,0.00,WUHU21623XXSP,2013-05-09 10:09:00,
2013-05-09 03:14:00,51.3,42.9,30.22,NNE,22,3.8,4.7,73,0.00,,,0.00,WUHU21623XXSP,2013-05-09 10:14:00,
2013-05-09 03:19:00,51.1,42.7,30.23,NNE,22,2.5,3.8,73,0.00,,,0.00,WUHU21623XXSP,2013-05-09 10:19:00,
2013-05-09 03:25:00,51.1,42.7,30.23,NNE,22,3.1,3.1,73,0.00,,,0.00,WUHU21623XXSP,2013-05-09 10:25:00,
2013-05-09 03:30:00,50.9,42.6,30.22,NNE,22,2.5,4.5,73,0.00,,,0.00,WUHU21623XXSP,2013-05-09 10:30:00,
2013-05-09 03:35:00,50.9,42.9,30.22,NNE,22,4.9,4.9,74,0.00,,,0.00,WUHU21623XXSP,2013-05-09 10:35:00,
2013-05-09 03:40:00,50.7,42.7,30.22,NNE,22,3.6,4.9,74,0.00,,,0.00,WUHU21623XXSP,2013-05-09 10:40:00,
2013-05-09 03:45:00,50.7,42.7,30.22,NNE,22,2.2,4.3,74,0.00,,,0.00,WUHU21623XXSP,2013-05-09 10:45:00,
2013-05-09 03:50:00,50.7,42.7,30.21,NNE,22,3.6,3.6,74,0.00,,,0.00,WUHU21623XXSP,2013-05-09 10:50:00,
2013-05-09 03:55:00,50.5,42.5,30.22,NNE,22,4.0,4.0,74,0.00,,,0.00,WUHU21623XXSP,2013-05-09 10:55:00,
2013-05-09 04:00:00,50.5,42.5,30.21,NNE,22,5.6,5.6,74,0.00,,,0.00,WUHU21623XXSP,2013-05-09 11:00:00,
2013-05-09 04:05:00,50.7,42.5,30.21,NNE,22,2.9,5.6,74,0.00,,,0.00,WUHU21623XXSP,2013-05-09 11:05:00,
2013-05-09 04:10:00,50.7,42.7,30.21,NNE,22,3.4,5.6,74,0.00,,,0.00,WUHU21623XXSP,2013-05-09 11:10:00,
2013-05-09 04:15:00,50.7,42.7,30.21,NNE,22,2.9,3.4,74,0.00,,,0.00,WUHU21623XXSP,2013-05-09 11:15:00,
2013-05-09 04:20:00,50.7,42.7,30.21,NNE,22,5.6,5.6,74,0.00,,,0.00,WUHU21623XXSP,2013-05-09 11:20:00,
2013-05-09 04:25:00,50.7,42.7,30.21,NNE,22,2.7,5.6,74,0.00,,,0.00,WUHU21623XXSP,2013-05-09 11:25:00,
2013-05-09 04:30:00,50.7,42.9,30.21,NNE,22,2.7,4.7,74,0.00,,,0.00,WUHU21623XXSP,2013-05-09 11:30:00,
2013-05-09 04:35:00,50.9,42.9,30.21,NNE,22,4.9,4.9,74,0.00,,,0.00,WUHU21623XXSP,2013-05-09 11:35:00,
2013-05-09 04:40:00,50.7,42.7,30.20,North,0,1.1,4.9,74,0.00,,,0.00,WUHU21623XXSP,2013-05-09 11:40:00,
2013-05-09 04:45:00,50.7,42.7,30.20,NNW,337,0.0,1.1,74,0.00,,,0.00,WUHU21623XXSP,2013-05-09 11:45:00,
2013-05-09 04:50:00,50.5,42.5,30.20,NNW,337,0.0,0.0,74,0.00,,,0.00,WUHU21623XXSP,2013-05-09 11:50:00,
2013-05-09 04:55:00,50.4,42.4,30.21,NNE,22,2.9,2.9,74,0.00,,,0.00,WUHU21623XXSP,2013-05-09 11:55:00,
2013-05-09 05:00:00,50.2,42.2,30.20,NNE,22,2.2,2.9,74,0.00,,,0.00,WUHU21623XXSP,2013-05-09 12:00:00,
2013-05-09 05:05:00,50.2,42.2,30.20,NNE,22,2.5,3.1,74,0.00,,,0.00,WUHU21623XXSP,2013-05-09 12:05:00,
2013-05-09 05:10:00,50.4,42.7,30.21,NNE,22,3.1,3.1,75,0.00,,,0.00,WUHU21623XXSP,2013-05-09 12:10:00,
2013-05-09 05:15:00,50.2,42.5,30.20,NE,45,0.0,3.1,75,0.00,,,0.00,WUHU21623XXSP,2013-05-09 12:15:00,
2013-05-09 05:20:00,50.2,42.2,30.20,WNW,292,0.0,3.6,74,0.00,,,0.00,WUHU21623XXSP,2013-05-09 12:20:00,
2013-05-09 05:25:00,49.8,41.8,30.20,SSW,202,0.0,3.6,74,0.00,,,0.00,WUHU21623XXSP,2013-05-09 12:25:00,
2013-05-09 05:30:00,49.8,41.8,30.20,WSW,247,0.0,0.0,74,0.00,,,0.00,WUHU21623XXSP,2013-05-09 12:30:00,
2013-05-09 05:35:00,49.6,41.6,30.20,West,270,0.0,0.0,74,0.00,,,0.00,WUHU21623XXSP,2013-05-09 12:35:00,
2013-05-09 05:40:00,49.3,41.6,30.20,North,0,2.0,2.0,75,0.00,,,0.00,WUHU21623XXSP,2013-05-09 12:40:00,
2013-05-09 05:45:00,49.6,42.3,30.20,NNE,22,3.8,3.8,76,0.00,,,0.00,WUHU21623XXSP,2013-05-09 12:45:00,
2013-05-09 05:50:00,49.8,42.5,30.20,North,0,1.3,3.8,76,0.00,,,0.00,WUHU21623XXSP,2013-05-09 12:50:00,
2013-05-09 05:56:00,50.2,42.5,30.20,NNE,22,0.0,3.8,76,0.00,,,0.00,WUHU21623XXSP,2013-05-09 12:56:00,
2013-05-09 06:01:00,50.2,42.9,30.19,North,0,0.0,0.0,76,0.00,,,0.00,WUHU21623XXSP,2013-05-09 13:01:00,
2013-05-09 06:06:00,50.2,42.9,30.20,NNE,22,2.7,4.5,76,0.00,,,0.00,WUHU21623XXSP,2013-05-09 13:06:00,
2013-05-09 06:11:00,50.2,42.9,30.20,NNE,22,1.6,4.5,76,0.00,,,0.00,WUHU21623XXSP,2013-05-09 13:11:00,
2013-05-09 06:16:00,50.4,43.1,30.20,NNE,22,2.2,2.2,76,0.00,,,0.00,WUHU21623XXSP,2013-05-09 13:16:00,
2013-05-09 06:21:00,50.4,43.1,30.20,NNE,22,0.0,2.2,76,0.00,,,0.00,WUHU21623XXSP,2013-05-09 13:21:00,
2013-05-09 06:26:00,50.4,43.1,30.20,WNW,292,0.0,0.0,76,0.00,,,0.00,WUHU21623XXSP,2013-05-09 13:26:00,
2013-05-09 06:31:00,50.4,42.7,30.20,NNW,337,0.9,0.9,75,0.00,,,0.00,WUHU21623XXSP,2013-05-09 13:31:00,
2013-05-09 06:36:00,50.2,42.5,30.20,NNE,22,3.1,3.1,75,0.00,,,0.00,WUHU21623XXSP,2013-05-09 13:36:00,
2013-05-09 06:41:00,50.2,42.9,30.20,NNE,22,6.0,6.0,76,0.00,,,0.00,WUHU21623XXSP,2013-05-09 13:41:00,
2013-05-09 06:46:00,50.5,43.2,30.20,NNE,22,5.4,6.0,76,0.00,,,0.00,WUHU21623XXSP,2013-05-09 13:46:00,
2013-05-09 06:51:00,50.7,43.2,30.20,North,0,3.4,5.4,76,0.00,,,0.00,WUHU21623XXSP,2013-05-09 13:51:00,
2013-05-09 06:56:00,51.3,44.0,30.21,NNE,22,5.8,5.8,76,0.00,,,0.00,WUHU21623XXSP,2013-05-09 13:56:00,
2013-05-09 07:01:00,51.4,44.1,30.21,North,0,6.5,6.5,76,0.00,,,0.00,WUHU21623XXSP,2013-05-09 14:01:00,
2013-05-09 07:06:00,52.3,44.7,30.21,NNE,22,3.8,6.5,75,0.00,,,0.00,WUHU21623XXSP,2013-05-09 14:06:00,
2013-05-09 07:11:00,52.7,45.0,30.21,NNE,22,4.7,5.8,75,0.00,,,0.00,WUHU21623XXSP,2013-05-09 14:11:00,
2013-05-09 07:16:00,53.2,45.2,30.21,North,0,0.9,4.9,74,0.00,,,0.00,WUHU21623XXSP,2013-05-09 14:16:00,
2013-05-09 07:21:00,54.0,45.8,30.21,North,0,0.0,2.5,74,0.00,,,0.00,WUHU21623XXSP,2013-05-09 14:21:00,
2013-05-09 07:26:00,54.3,45.8,30.22,NNE,22,0.9,2.5,73,0.00,,,0.00,WUHU21623XXSP,2013-05-09 14:26:00,
2013-05-09 07:31:00,55.0,46.2,30.21,NNE,22,2.2,2.2,72,0.00,,,0.00,WUHU21623XXSP,2013-05-09 14:31:00,
2013-05-09 07:36:00,55.8,46.7,30.21,NNE,22,2.2,2.2,72,0.00,,,0.00,WUHU21623XXSP,2013-05-09 14:36:00,
2013-05-09 07:41:00,56.3,47.0,30.21,NNW,337,6.3,6.3,71,0.00,,,0.00,WUHU21623XXSP,2013-05-09 14:41:00,
2013-05-09 07:46:00,56.8,47.5,30.21,NNW,337,0.0,6.3,71,0.00,,,0.00,WUHU21623XXSP,2013-05-09 14:46:00,
2013-05-09 07:51:00,57.4,47.7,30.21,NNW,337,0.0,0.0,70,0.00,,,0.00,WUHU21623XXSP,2013-05-09 14:51:00,
2013-05-09 07:56:00,57.7,48.0,30.21,NW,315,1.8,1.8,70,0.00,,,0.00,WUHU21623XXSP,2013-05-09 14:56:00,
2013-05-09 08:01:00,58.3,48.0,30.22,NW,315,1.8,1.8,69,0.00,,,0.00,WUHU21623XXSP,2013-05-09 15:01:00,
2013-05-09 08:06:00,59.0,48.5,30.21,North,0,0.0,2.9,68,0.00,,,0.00,WUHU21623XXSP,2013-05-09 15:06:00,
2013-05-09 08:11:00,59.5,48.6,30.21,WNW,292,0.0,2.9,67,0.00,,,0.00,WUHU21623XXSP,2013-05-09 15:11:00,
2013-05-09 08:17:00,60.1,49.1,30.21,North,0,14.1,14.1,66,0.00,,,0.00,WUHU21623XXSP,2013-05-09 15:17:00,
2013-05-09 08:22:00,60.6,49.2,30.21,WNW,292,6.0,14.1,66,0.00,,,0.00,WUHU21623XXSP,2013-05-09 15:22:00,
2013-05-09 08:27:00,61.2,49.6,30.21,South,180,0.0,14.1,65,0.00,,,0.00,WUHU21623XXSP,2013-05-09 15:27:00,
2013-05-09 08:32:00,61.7,49.4,30.21,WNW,292,5.1,5.1,64,0.00,,,0.00,WUHU21623XXSP,2013-05-09 15:32:00,
2013-05-09 08:37:00,62.4,49.6,30.21,WNW,292,0.0,5.1,63,0.00,,,0.00,WUHU21623XXSP,2013-05-09 15:37:00,
2013-05-09 08:42:00,62.8,50.0,30.22,North,0,2.0,2.2,63,0.00,,,0.00,WUHU21623XXSP,2013-05-09 15:42:00,
2013-05-09 08:47:00,63.7,50.0,30.22,NE,45,0.0,2.0,61,0.00,,,0.00,WUHU21623XXSP,2013-05-09 15:47:00,
2013-05-09 08:52:00,64.0,49.9,30.22,NNE,22,0.0,3.1,60,0.00,,,0.00,WUHU21623XXSP,2013-05-09 15:52:00,
2013-05-09 08:57:00,64.6,50.0,30.21,NW,315,5.4,5.4,59,0.00,,,0.00,WUHU21623XXSP,2013-05-09 15:57:00,
2013-05-09 09:02:00,65.1,50.4,30.22,WNW,292,0.0,5.4,59,0.00,,,0.00,WUHU21623XXSP,2013-05-09 16:02:00,
2013-05-09 09:07:00,65.5,50.8,30.22,NW,315,0.9,5.4,59,0.00,,,0.00,WUHU21623XXSP,2013-05-09 16:07:00,
2013-05-09 09:12:00,66.0,50.8,30.22,NNW,337,17.2,17.2,58,0.00,,,0.00,WUHU21623XXSP,2013-05-09 16:12:00,
2013-05-09 09:17:00,66.7,50.0,30.22,NNE,22,2.9,17.2,55,0.00,,,0.00,WUHU21623XXSP,2013-05-09 16:17:00,
2013-05-09 09:22:00,66.9,50.2,30.22,WSW,247,2.5,7.2,55,0.00,,,0.00,WUHU21623XXSP,2013-05-09 16:22:00,
2013-05-09 09:27:00,67.3,50.0,30.22,NNW,337,2.0,2.5,54,0.00,,,0.00,WUHU21623XXSP,2013-05-09 16:27:00,
2013-05-09 09:32:00,67.8,50.0,30.22,WNW,292,4.3,6.7,53,0.00,,,0.00,WUHU21623XXSP,2013-05-09 16:32:00,
2013-05-09 09:37:00,68.4,50.4,30.22,WNW,292,4.3,6.7,52,0.00,,,0.00,WUHU21623XXSP,2013-05-09 16:37:00,
2013-05-09 09:42:00,68.5,49.7,30.22,WNW,292,5.1,5.1,51,0.00,,,0.00,WUHU21623XXSP,2013-05-09 16:42:00,
2013-05-09 09:47:00,69.1,50.2,30.22,West,270,2.9,5.1,51,0.00,,,0.00,WUHU21623XXSP,2013-05-09 16:47:00,
2013-05-09 09:52:00,69.6,50.7,30.22,NNW,337,3.1,3.4,51,0.00,,,0.00,WUHU21623XXSP,2013-05-09 16:52:00,
2013-05-09 09:57:00,70.2,50.1,30.23,North,0,1.1,3.8,49,0.00,,,0.00,WUHU21623XXSP,2013-05-09 16:57:00,
2013-05-09 10:02:00,70.3,50.3,30.22,West,270,9.4,9.4,49,0.00,,,0.00,WUHU21623XXSP,2013-05-09 17:02:00,
2013-05-09 10:07:00,70.7,49.8,30.23,North,0,2.5,9.4,47,0.00,,,0.00,WUHU21623XXSP,2013-05-09 17:07:00,
2013-05-09 10:12:00,71.2,49.3,30.23,ENE,67,9.2,9.2,46,0.00,,,0.00,WUHU21623XXSP,2013-05-09 17:12:00,
2013-05-09 10:17:00,71.2,48.7,30.23,West,270,0.0,9.2,45,0.00,,,0.00,WUHU21623XXSP,2013-05-09 17:17:00,
2013-05-09 10:22:00,71.4,49.4,30.23,North,0,5.4,5.4,46,0.00,,,0.00,WUHU21623XXSP,2013-05-09 17:22:00,
2013-05-09 10:27:00,72.3,49.3,30.23,WNW,292,0.0,5.4,44,0.00,,,0.00,WUHU21623XXSP,2013-05-09 17:27:00,
2013-05-09 10:32:00,72.7,49.4,30.23,NNE,22,6.0,6.0,44,0.00,,,0.00,WUHU21623XXSP,2013-05-09 17:32:00,
2013-05-09 10:37:00,72.9,48.4,30.23,NNE,22,9.8,9.8,42,0.00,,,0.00,WUHU21623XXSP,2013-05-09 17:37:00,
2013-05-09 10:42:00,73.0,48.5,30.23,NNE,22,0.9,9.8,42,0.00,,,0.00,WUHU21623XXSP,2013-05-09 17:42:00,
2013-05-09 10:47:00,73.2,48.7,30.23,NW,315,0.0,0.9,42,0.00,,,0.00,WUHU21623XXSP,2013-05-09 17:47:00,
2013-05-09 10:52:00,73.6,48.4,30.23,NE,45,8.7,8.7,41,0.00,,,0.00,WUHU21623XXSP,2013-05-09 17:52:00,
2013-05-09 10:57:00,74.1,48.9,30.23,East,90,12.3,12.3,41,0.00,,,0.00,WUHU21623XXSP,2013-05-09 17:57:00,
2013-05-09 11:02:00,74.5,48.6,30.23,NW,315,7.8,12.3,40,0.00,,,0.00,WUHU21623XXSP,2013-05-09 18:02:00,
2013-05-09 11:07:00,74.8,49.0,30.23,North,0,8.1,8.1,40,0.00,,,0.00,WUHU21623XXSP,2013-05-09 18:07:00,
2013-05-09 11:12:00,75.4,48.4,30.23,South,180,0.7,8.1,39,0.00,,,0.00,WUHU21623XXSP,2013-05-09 18:12:00,
2013-05-09 11:17:00,75.7,48.7,30.24,South,180,0.7,6.0,39,0.00,,,0.00,WUHU21623XXSP,2013-05-09 18:17:00,
2013-05-09 11:22:00,75.9,48.4,30.23,ESE,112,0.0,0.7,38,0.00,,,0.00,WUHU21623XXSP,2013-05-09 18:22:00,
2013-05-09 11:27:00,76.1,48.6,30.23,SW,225,0.7,4.0,38,0.00,,,0.00,WUHU21623XXSP,2013-05-09 18:27:00,
2013-05-09 11:32:00,76.6,49.5,30.24,SW,225,0.7,4.0,39,0.00,,,0.00,WUHU21623XXSP,2013-05-09 18:32:00,
2013-05-09 11:37:00,77.2,50.3,30.23,SSE,157,7.6,7.6,39,0.00,,,0.00,WUHU21623XXSP,2013-05-09 18:37:00,
2013-05-09 11:43:00,77.7,49.2,30.23,NNW,337,2.9,7.6,37,0.00,,,0.00,WUHU21623XXSP,2013-05-09 18:43:00,
2013-05-09 11:48:00,78.1,49.4,30.24,NNW,337,2.9,5.8,37,0.00,,,0.00,WUHU21623XXSP,2013-05-09 18:48:00,
2013-05-09 11:53:00,78.6,50.0,30.24,SSW,202,3.4,3.4,37,0.00,,,0.00,WUHU21623XXSP,2013-05-09 18:53:00,
2013-05-09 11:58:00,79.5,50.1,30.24,NNE,22,5.1,5.1,36,0.00,,,0.00,WUHU21623XXSP,2013-05-09 18:58:00,
2013-05-09 12:03:00,79.9,49.6,30.24,NW,315,9.6,9.6,35,0.00,,,0.00,WUHU21623XXSP,2013-05-09 19:03:00,
2013-05-09 12:08:00,80.1,49.8,30.23,NNE,22,0.0,9.6,35,0.00,,,0.00,WUHU21623XXSP,2013-05-09 19:08:00,
2013-05-09 12:13:00,80.4,50.1,30.24,SE,135,3.1,7.2,35,0.00,,,0.00,WUHU21623XXSP,2013-05-09 19:13:00,
2013-05-09 12:18:00,80.4,50.1,30.24,SSW,202,2.2,7.2,35,0.00,,,0.00,WUHU21623XXSP,2013-05-09 19:18:00,
2013-05-09 12:23:00,80.2,49.2,30.24,WSW,247,0.9,6.9,34,0.00,,,0.00,WUHU21623XXSP,2013-05-09 19:23:00,
2013-05-09 12:28:00,79.3,48.5,30.24,NE,45,0.0,6.9,34,0.00,,,0.00,WUHU21623XXSP,2013-05-09 19:28:00,
2013-05-09 12:33:00,78.6,46.9,30.24,East,90,2.9,4.5,33,0.00,,,0.00,WUHU21623XXSP,2013-05-09 19:33:00,
2013-05-09 12:38:00,78.3,46.7,30.24,NNW,337,1.1,2.9,33,0.00,,,0.00,WUHU21623XXSP,2013-05-09 19:38:00,
2013-05-09 12:43:00,77.9,46.3,30.24,NNE,22,5.1,9.8,33,0.00,,,0.00,WUHU21623XXSP,2013-05-09 19:43:00,
2013-05-09 12:48:00,77.5,46.0,30.24,ESE,112,4.5,9.8,33,0.00,,,0.00,WUHU21623XXSP,2013-05-09 19:48:00,
2013-05-09 12:53:00,77.4,47.4,30.24,WNW,292,0.9,7.4,35,0.00,,,0.00,WUHU21623XXSP,2013-05-09 19:53:00,
2013-05-09 12:58:00,77.5,47.6,30.24,NNW,337,1.3,3.6,35,0.00,,,0.00,WUHU21623XXSP,2013-05-09 19:58:00,
2013-05-09 13:03:00,77.5,47.6,30.24,NNW,337,0.0,3.8,35,0.00,,,0.00,WUHU21623XXSP,2013-05-09 20:03:00,
2013-05-09 13:08:00,77.2,45.9,30.24,NNE,22,4.7,8.3,33,0.00,,,0.00,WUHU21623XXSP,2013-05-09 20:08:00,
2013-05-09 13:13:00,77.2,47.3,30.25,WSW,247,4.3,8.3,35,0.00,,,0.00,WUHU21623XXSP,2013-05-09 20:13:00,
2013-05-09 13:18:00,77.0,47.1,30.24,West,270,1.8,4.5,35,0.00,,,0.00,WUHU21623XXSP,2013-05-09 20:18:00,
2013-05-09 13:23:00,77.2,47.3,30.24,West,270,4.9,4.9,35,0.00,,,0.00,WUHU21623XXSP,2013-05-09 20:23:00,
2013-05-09 13:28:00,77.2,48.0,30.24,WNW,292,2.0,4.9,36,0.00,,,0.00,WUHU21623XXSP,2013-05-09 20:28:00,
2013-05-09 13:33:00,77.0,48.6,30.24,WSW,247,3.8,3.8,37,0.00,,,0.00,WUHU21623XXSP,2013-05-09 20:33:00,
2013-05-09 13:38:00,76.6,49.1,30.24,NNW,337,3.8,3.8,38,0.00,,,0.00,WUHU21623XXSP,2013-05-09 20:38:00,
2013-05-09 13:43:00,76.5,48.9,30.25,WNW,292,9.2,9.2,38,0.00,,,0.00,WUHU21623XXSP,2013-05-09 20:43:00,
2013-05-09 13:48:00,76.1,48.7,30.24,WNW,292,9.2,9.2,38,0.00,,,0.00,WUHU21623XXSP,2013-05-09 20:48:00,
2013-05-09 13:53:00,75.4,48.8,30.25,West,270,9.2,9.2,39,0.00,,,0.00,WUHU21623XXSP,2013-05-09 20:53:00,
2013-05-09 13:58:00,75.0,49.1,30.25,West,270,8.7,9.2,40,0.00,,,0.00,WUHU21623XXSP,2013-05-09 20:58:00,
2013-05-09 14:03:00,75.0,49.1,30.25,West,270,5.4,8.7,40,0.00,,,0.00,WUHU21623XXSP,2013-05-09 21:03:00,
2013-05-09 14:09:00,74.8,49.0,30.24,West,270,5.1,11.9,40,0.00,,,0.00,WUHU21623XXSP,2013-05-09 21:09:00,
2013-05-09 14:14:00,74.8,49.0,30.24,West,270,7.4,11.9,40,0.00,,,0.00,WUHU21623XXSP,2013-05-09 21:14:00,
2013-05-09 14:19:00,75.6,49.4,30.25,West,270,5.1,7.4,40,0.00,,,0.00,WUHU21623XXSP,2013-05-09 21:19:00,
2013-05-09 14:24:00,75.7,49.8,30.24,West,270,9.8,9.8,40,0.00,,,0.00,WUHU21623XXSP,2013-05-09 21:24:00,
2013-05-09 14:29:00,75.7,49.0,30.25,WNW,292,6.0,9.8,40,0.00,,,0.00,WUHU21623XXSP,2013-05-09 21:29:00,
2013-05-09 14:34:00,75.9,49.9,30.25,West,270,12.5,12.5,40,0.00,,,0.00,WUHU21623XXSP,2013-05-09 21:34:00,
2013-05-09 14:39:00,76.3,49.5,30.25,West,270,4.3,13.2,39,0.00,,,0.00,WUHU21623XXSP,2013-05-09 21:39:00,
2013-05-09 14:44:00,76.6,50.6,30.25,West,270,6.3,13.2,40,0.00,,,0.00,WUHU21623XXSP,2013-05-09 21:44:00,
2013-05-09 14:49:00,77.4,50.5,30.25,WNW,292,11.0,11.6,39,0.00,,,0.00,WUHU21623XXSP,2013-05-09 21:49:00,
2013-05-09 14:54:00,77.5,50.6,30.25,WNW,292,10.3,11.0,39,0.00,,,0.00,WUHU21623XXSP,2013-05-09 21:54:00,
2013-05-09 14:59:00,77.4,50.5,30.24,West,270,7.6,10.3,39,0.00,,,0.00,WUHU21623XXSP,2013-05-09 21:59:00,
2013-05-09 15:04:00,77.5,49.9,30.24,West,270,0.7,10.3,38,0.00,,,0.00,WUHU21623XXSP,2013-05-09 22:04:00,
2013-05-09 15:09:00,77.5,50.6,30.24,SW,225,2.5,10.7,39,0.00,,,0.00,WUHU21623XXSP,2013-05-09 22:09:00,
2013-05-09 15:14:00,77.5,49.9,30.24,West,270,7.8,10.7,38,0.00,,,0.00,WUHU21623XXSP,2013-05-09 22:14:00,
2013-05-09 15:19:00,77.2,49.5,30.25,WNW,292,7.6,7.8,38,0.00,,,0.00,WUHU21623XXSP,2013-05-09 22:19:00,
2013-05-09 15:24:00,76.6,49.1,30.24,West,270,7.4,7.6,38,0.00,,,0.00,WUHU21623XXSP,2013-05-09 22:24:00,
2013-05-09 15:29:00,76.1,49.3,30.24,NW,315,12.5,12.5,39,0.00,,,0.00,WUHU21623XXSP,2013-05-09 22:29:00,
2013-05-09 15:34:00,75.9,49.2,30.24,WNW,292,7.4,12.5,39,0.00,,,0.00,WUHU21623XXSP,2013-05-09 22:34:00,
2013-05-09 15:39:00,76.1,50.1,30.24,West,270,9.6,9.6,40,0.00,,,0.00,WUHU21623XXSP,2013-05-09 22:39:00,
2013-05-09 15:44:00,76.8,50.7,30.24,WNW,292,6.5,11.0,40,0.00,,,0.00,WUHU21623XXSP,2013-05-09 22:44:00,
2013-05-09 15:49:00,77.5,50.6,30.23,WSW,247,9.2,11.0,39,0.00,,,0.00,WUHU21623XXSP,2013-05-09 22:49:00,
2013-05-09 15:54:00,77.5,51.4,30.23,WSW,247,10.5,10.5,40,0.00,,,0.00,WUHU21623XXSP,2013-05-09 22:54:00,
2013-05-09 15:59:00,77.4,50.5,30.24,NNW,337,4.9,10.5,39,0.00,,,0.00,WUHU21623XXSP,2013-05-09 22:59:00,
2013-05-09 16:04:00,76.8,50.0,30.23,West,270,9.2,13.2,39,0.00,,,0.00,WUHU21623XXSP,2013-05-09 23:04:00,
2013-05-09 16:09:00,76.5,49.7,30.23,WNW,292,15.0,15.0,39,0.00,,,0.00,WUHU21623XXSP,2013-05-09 23:09:00,
2013-05-09 16:14:00,76.1,50.1,30.24,WNW,292,16.8,16.8,40,0.00,,,0.00,WUHU21623XXSP,2013-05-09 23:14:00,
2013-05-09 16:19:00,75.7,49.8,30.24,WNW,292,10.5,16.8,40,0.00,,,0.00,WUHU21623XXSP,2013-05-09 23:19:00,
2013-05-09 16:24:00,75.0,49.4,30.24,WSW,247,6.9,10.5,41,0.00,,,0.00,WUHU21623XXSP,2013-05-09 23:24:00,
2013-05-09 16:29:00,75.0,49.7,30.23,West,270,7.6,11.2,41,0.00,,,0.00,WUHU21623XXSP,2013-05-09 23:29:00,
2013-05-09 16:34:00,74.8,50.2,30.23,West,270,6.9,11.2,42,0.00,,,0.00,WUHU21623XXSP,2013-05-09 23:34:00,
2013-05-09 16:40:00,75.0,50.2,30.24,West,270,6.9,6.9,42,0.00,,,0.00,WUHU21623XXSP,2013-05-09 23:40:00,
2013-05-09 16:45:00,75.0,49.7,30.25,West,270,4.0,6.9,41,0.00,,,0.00,WUHU21623XXSP,2013-05-09 23:45:00,
2013-05-09 16:50:00,75.0,49.7,30.25,West,270,4.0,4.0,41,0.00,,,0.00,WUHU21623XXSP,2013-05-09 23:50:00,
2013-05-09 16:55:00,75.0,49.7,30.25,West,270,4.0,4.0,42,0.00,,,0.00,WUHU21623XXSP,2013-05-09 23:55:00,
2013-05-09 17:00:00,74.1,49.5,30.25,West,270,13.2,13.2,43,0.00,,,0.00,WUHU21623XXSP,2013-05-10 00:00:00,
2013-05-09 17:05:00,74.3,50.3,30.25,West,270,6.5,13.2,43,0.00,,,0.00,WUHU21623XXSP,2013-05-10 00:05:00,
2013-05-09 17:10:00,74.3,50.3,30.25,West,270,6.5,6.5,43,0.00,,,0.00,WUHU21623XXSP,2013-05-10 00:10:00,
2013-05-09 17:15:00,73.9,49.9,30.25,West,270,6.5,6.5,43,0.00,,,0.00,WUHU21623XXSP,2013-05-10 00:15:00,
2013-05-09 17:20:00,73.6,49.6,30.25,WNW,292,8.1,8.1,43,0.00,,,0.00,WUHU21623XXSP,2013-05-10 00:20:00,
2013-05-09 17:25:00,73.2,49.3,30.26,WSW,247,3.8,8.1,43,0.00,,,0.00,WUHU21623XXSP,2013-05-10 00:25:00,
2013-05-09 17:30:00,73.0,49.1,30.25,WNW,292,4.7,6.5,43,0.00,,,0.00,WUHU21623XXSP,2013-05-10 00:30:00,
2013-05-09 17:35:00,72.7,48.8,30.25,West,270,8.1,8.1,43,0.00,,,0.00,WUHU21623XXSP,2013-05-10 00:35:00,
2013-05-09 17:40:00,72.3,48.5,30.25,North,0,5.1,11.2,43,0.00,,,0.00,WUHU21623XXSP,2013-05-10 00:40:00,
2013-05-09 17:45:00,72.1,48.3,30.25,WNW,292,3.8,11.2,43,0.00,,,0.00,WUHU21623XXSP,2013-05-10 00:45:00,
2013-05-09 17:50:00,72.0,48.7,30.25,WNW,292,3.1,3.8,44,0.00,,,0.00,WUHU21623XXSP,2013-05-10 00:50:00,
2013-05-09 17:55:00,71.4,48.3,30.26,NNE,22,4.3,4.3,44,0.00,,,0.00,WUHU21623XXSP,2013-05-10 00:55:00,
2013-05-09 18:00:00,70.9,47.2,30.25,NNW,337,3.4,4.3,43,0.00,,,0.00,WUHU21623XXSP,2013-05-10 01:00:00,
2013-05-09 18:05:00,70.3,46.7,30.25,NW,315,2.7,3.4,43,0.00,,,0.00,WUHU21623XXSP,2013-05-10 01:05:00,
2013-05-09 18:10:00,69.6,46.0,30.25,NW,315,3.6,9.6,44,0.00,,,0.00,WUHU21623XXSP,2013-05-10 01:10:00,
2013-05-09 18:15:00,69.1,46.1,30.26,WNW,292,0.0,9.6,44,0.00,,,0.00,WUHU21623XXSP,2013-05-10 01:15:00,
2013-05-09 18:20:00,68.7,45.8,30.26,NNW,337,3.1,5.4,44,0.00,,,0.00,WUHU21623XXSP,2013-05-10 01:20:00,
2013-05-09 18:25:00,68.5,45.7,30.26,NW,315,9.6,9.6,44,0.00,,,0.00,WUHU21623XXSP,2013-05-10 01:25:00,
2013-05-09 18:30:00,67.8,45.6,30.25,North,0,5.1,9.6,45,0.00,,,0.00,WUHU21623XXSP,2013-05-10 01:30:00,
2013-05-09 18:35:00,67.3,45.1,30.26,North,0,3.8,9.2,45,0.00,,,0.00,WUHU21623XXSP,2013-05-10 01:35:00,
2013-05-09 18:40:00,66.9,44.8,30.27,NNE,22,8.3,9.2,45,0.00,,,0.00,WUHU21623XXSP,2013-05-10 01:40:00,
2013-05-09 18:45:00,66.9,44.8,30.27,NNE,22,0.0,8.3,45,0.00,,,0.00,WUHU21623XXSP,2013-05-10 01:45:00,
2013-05-09 18:50:00,66.7,45.2,30.27,NNW,337,2.5,6.5,46,0.00,,,0.00,WUHU21623XXSP,2013-05-10 01:50:00,
2013-05-09 18:55:00,66.7,45.2,30.28,North,0,0.0,6.5,46,0.00,,,0.00,WUHU21623XXSP,2013-05-10 01:55:00,
2013-05-09 19:00:00,66.7,45.2,30.27,North,0,2.7,2.7,46,0.00,,,0.00,WUHU21623XXSP,2013-05-10 02:00:00,
2013-05-09 19:06:00,66.7,45.2,30.28,NW,315,0.0,2.7,46,0.00,,,0.00,WUHU21623XXSP,2013-05-10 02:06:00,
2013-05-09 19:11:00,66.7,45.8,30.27,NNW,337,0.0,0.9,47,0.00,,,0.00,WUHU21623XXSP,2013-05-10 02:11:00,
2013-05-09 19:16:00,66.6,45.7,30.27,NNE,22,0.0,0.0,47,0.00,,,0.00,WUHU21623XXSP,2013-05-10 02:16:00,
2013-05-09 19:21:00,66.6,45.7,30.27,North,0,1.6,3.1,47,0.00,,,0.00,WUHU21623XXSP,2013-05-10 02:21:00,
2013-05-09 19:26:00,66.4,45.5,30.27,North,0,3.8,3.8,47,0.00,,,0.00,WUHU21623XXSP,2013-05-10 02:26:00,
2013-05-09 19:31:00,66.0,45.2,30.26,NNE,22,0.9,3.8,47,0.00,,,0.00,WUHU21623XXSP,2013-05-10 02:31:00,
2013-05-09 19:36:00,66.0,45.2,30.26,NNE,22,0.0,1.6,47,0.00,,,0.00,WUHU21623XXSP,2013-05-10 02:36:00,
2013-05-09 19:41:00,65.8,45.0,30.27,SW,225,0.0,1.6,47,0.00,,,0.00,WUHU21623XXSP,2013-05-10 02:41:00,
2013-05-09 19:46:00,66.0,45.8,30.27,SSE,157,0.0,2.7,48,0.00,,,0.00,WUHU21623XXSP,2013-05-10 02:46:00,
2013-05-09 19:51:00,66.0,45.8,30.27,East,90,0.0,2.7,48,0.00,,,0.00,WUHU21623XXSP,2013-05-10 02:51:00,
2013-05-09 19:56:00,65.8,45.6,30.27,ENE,67,0.0,0.0,48,0.00,,,0.00,WUHU21623XXSP,2013-05-10 02:56:00,
2013-05-09 20:01:00,65.1,46.0,30.27,East,90,2.2,3.1,50,0.00,,,0.00,WUHU21623XXSP,2013-05-10 03:01:00,
2013-05-09 20:06:00,64.8,45.7,30.27,ENE,67,0.0,3.1,50,0.00,,,0.00,WUHU21623XXSP,2013-05-10 03:06:00,
2013-05-09 20:11:00,64.2,45.6,30.27,NE,45,2.7,3.1,51,0.00,,,0.00,WUHU21623XXSP,2013-05-10 03:11:00,
2013-05-09 20:16:00,63.5,45.5,30.27,NNE,22,3.6,3.6,52,0.00,,,0.00,WUHU21623XXSP,2013-05-10 03:16:00,
2013-05-09 20:21:00,63.1,46.1,30.28,North,0,0.0,3.6,54,0.00,,,0.00,WUHU21623XXSP,2013-05-10 03:21:00,
2013-05-09 20:26:00,63.0,46.0,30.28,NW,315,2.0,2.5,54,0.00,,,0.00,WUHU21623XXSP,2013-05-10 03:26:00,
2013-05-09 20:31:00,62.6,46.1,30.28,NNE,22,1.6,2.0,55,0.00,,,0.00,WUHU21623XXSP,2013-05-10 03:31:00,
2013-05-09 20:36:00,62.4,46.0,30.28,NNW,337,1.1,2.2,55,0.00,,,0.00,WUHU21623XXSP,2013-05-10 03:36:00,
2013-05-09 20:41:00,62.2,46.3,30.28,NNW,337,3.6,6.7,56,0.00,,,0.00,WUHU21623XXSP,2013-05-10 03:41:00,
2013-05-09 20:46:00,61.9,46.0,30.29,NNE,22,0.0,6.7,56,0.00,,,0.00,WUHU21623XXSP,2013-05-10 03:46:00,
2013-05-09 20:51:00,61.7,46.3,30.29,NNE,22,0.9,5.6,57,0.00,,,0.00,WUHU21623XXSP,2013-05-10 03:51:00,
2013-05-09 20:56:00,61.5,46.1,30.29,NNW,337,2.9,2.9,57,0.00,,,0.00,WUHU21623XXSP,2013-05-10 03:56:00,
2013-05-09 21:01:00,61.3,46.0,30.29,North,0,0.0,2.9,57,0.00,,,0.00,WUHU21623XXSP,2013-05-10 04:01:00,
2013-05-09 21:06:00,61.0,46.1,30.29,NNE,22,4.9,4.9,58,0.00,,,0.00,WUHU21623XXSP,2013-05-10 04:06:00,
2013-05-09 21:11:00,60.6,46.3,30.29,NNW,337,5.6,7.6,59,0.00,,,0.00,WUHU21623XXSP,2013-05-10 04:11:00,
2013-05-09 21:16:00,60.4,46.6,30.29,North,0,3.8,7.6,60,0.00,,,0.00,WUHU21623XXSP,2013-05-10 04:16:00,
2013-05-09 21:21:00,60.4,47.0,30.30,North,0,7.2,7.2,61,0.00,,,0.00,WUHU21623XXSP,2013-05-10 04:21:00,
2013-05-09 21:26:00,60.4,47.0,30.30,WNW,292,2.5,7.6,61,0.00,,,0.00,WUHU21623XXSP,2013-05-10 04:26:00,
2013-05-09 21:31:00,60.3,46.4,30.30,NNW,337,2.2,7.6,60,0.00,,,0.00,WUHU21623XXSP,2013-05-10 04:31:00,
2013-05-09 21:36:00,60.1,46.2,30.30,North,0,0.0,2.2,60,0.00,,,0.00,WUHU21623XXSP,2013-05-10 04:36:00,
2013-05-09 21:41:00,60.1,46.2,30.31,North,0,0.0,0.0,60,0.00,,,0.00,WUHU21623XXSP,2013-05-10 04:41:00,
2013-05-09 21:46:00,59.9,46.0,30.31,North,0,0.0,0.0,60,0.00,,,0.00,WUHU21623XXSP,2013-05-10 04:46:00,
2013-05-09 21:51:00,59.7,45.9,30.31,North,0,0.0,0.0,60,0.00,,,0.00,WUHU21623XXSP,2013-05-10 04:51:00,
2013-05-09 21:56:00,59.7,45.9,30.31,NNW,337,0.0,0.0,60,0.00,,,0.00,WUHU21623XXSP,2013-05-10 04:56:00,
2013-05-09 22:01:00,59.7,45.9,30.31,North,0,0.0,0.0,60,0.00,,,0.00,WUHU21623XXSP,2013-05-10 05:01:00,
2013-05-09 22:06:00,59.9,46.0,30.30,NW,315,0.0,0.0,60,0.00,,,0.00,WUHU21623XXSP,2013-05-10 05:06:00,
2013-05-09 22:12:00,59.9,46.0,30.31,NNE,22,0.0,0.0,60,0.00,,,0.00,WUHU21623XXSP,2013-05-10 05:12:00,
2013-05-09 22:17:00,59.5,45.7,30.31,NNE,22,0.0,0.0,60,0.00,,,0.00,WUHU21623XXSP,2013-05-10 05:17:00,
2013-05-09 22:22:00,59.5,45.7,30.31,North,0,0.0,0.0,60,0.00,,,0.00,WUHU21623XXSP,2013-05-10 05:22:00,
2013-05-09 22:27:00,59.2,45.3,30.31,North,0,0.0,0.0,60,0.00,,,0.00,WUHU21623XXSP,2013-05-10 05:27:00,
2013-05-09 22:32:00,59.0,45.1,30.31,NNW,337,0.0,0.0,60,0.00,,,0.00,WUHU21623XXSP,2013-05-10 05:32:00,
2013-05-09 22:37:00,58.8,45.0,30.31,NNW,337,0.0,0.0,60,0.00,,,0.00,WUHU21623XXSP,2013-05-10 05:37:00,
2013-05-09 22:42:00,58.6,44.8,30.31,North,0,0.0,0.0,60,0.00,,,0.00,WUHU21623XXSP,2013-05-10 05:42:00,
2013-05-09 22:47:00,58.3,44.5,30.31,North,0,0.0,0.0,60,0.00,,,0.00,WUHU21623XXSP,2013-05-10 05:47:00,
2013-05-09 22:52:00,58.3,44.5,30.31,North,0,0.0,0.0,60,0.00,,,0.00,WUHU21623XXSP,2013-05-10 05:52:00,
2013-05-09 22:57:00,57.9,44.6,30.30,WNW,292,0.0,0.0,61,0.00,,,0.00,WUHU21623XXSP,2013-05-10 05:57:00,
2013-05-09 23:02:00,57.9,44.6,30.30,NW,315,0.0,0.0,61,0.00,,,0.00,WUHU21623XXSP,2013-05-10 06:02:00,
2013-05-09 23:07:00,57.7,44.4,30.30,WNW,292,0.0,0.0,61,0.00,,,0.00,WUHU21623XXSP,2013-05-10 06:07:00,
2013-05-09 23:12:00,57.6,44.2,30.29,NNE,22,0.0,0.0,61,0.00,,,0.00,WUHU21623XXSP,2013-05-10 06:12:00,
2013-05-09 23:17:00,57.4,44.1,30.29,NNE,22,0.0,0.0,61,0.00,,,0.00,WUHU21623XXSP,2013-05-10 06:17:00,
2013-05-09 23:22:00,57.4,44.1,30.29,NE,45,0.0,0.0,61,0.00,,,0.00,WUHU21623XXSP,2013-05-10 06:22:00,
2013-05-09 23:27:00,57.0,43.7,30.30,NNE,22,0.0,0.0,61,0.00,,,0.00,WUHU21623XXSP,2013-05-10 06:27:00,
2013-05-09 23:32:00,56.8,43.6,30.29,WNW,292,0.0,0.0,61,0.00,,,0.00,WUHU21623XXSP,2013-05-10 06:32:00,
2013-05-09 23:37:00,56.5,43.6,30.29,SE,135,0.0,0.0,62,0.00,,,0.00,WUHU21623XXSP,2013-05-10 06:37:00,
2013-05-09 23:42:00,56.3,43.4,30.30,ENE,67,0.0,0.0,62,0.00,,,0.00,WUHU21623XXSP,2013-05-10 06:42:00,
2013-05-09 23:47:00,56.1,42.8,30.30,NNE,22,0.0,0.0,61,0.00,,,0.00,WUHU21623XXSP,2013-05-10 06:47:00,
2013-05-09 23:52:00,55.8,42.9,30.29,NNW,337,0.0,0.0,62,0.00,,,0.00,WUHU21623XXSP,2013-05-10 06:52:00,
2013-05-09 23:57:00,55.6,43.1,30.29,North,0,0.0,0.0,63,0.00,,,0.00,WUHU21623XXSP,2013-05-10 06:57:00,